Tracking 35275 objects as of 9-Sep-2026
HD Live streaming from Space Station
objects crossing your sky now

SL-7 DEB


SL-7 DEB is no longer on orbit


NORAD ID: 3710
Int'l Code: 1968-117Y
Launch date: December 19, 1968
Source: Commonwealth of Independent States (former USSR) (CIS)
Launch site: PLESETSK MISSILE AND SPACE COMPLEX (PKMTR)
Decay date: 1969-03-04

Note: This is SATELLITE DEBRIS
Your satellite tracking list
Your tracking list is empty




NASA's NSSDC Master Catalog

Two Line Element Set (TLE):
1 03710U 68117  Y 69057.55348941  .01624457 +00000-0 +00000-0 0  9999
2 03710 071.0688 269.8597 0051548 314.9540 044.7382 15.89437449010113
Source of the keplerian elements: AFSPC